Weather Roundup
Issued by NWS Corpus Christi, TX

Home | Current Version | Previous Version | Text Only | Print | Product List | Glossary On
Versions: 1 2 3 4 5 6 7 8 9 10 11 12 13 14 15 16 17 18 19 20 21 22 23 24 25 26 27 28 29 30 31 32 33 34 35 36 37 38 39 40 41 42 43 44 45 46 47 48 49 50
000
ASUS44 KCRP 241810
HRRCRP

SOUTH TEXAS REGIONAL WEATHER ROUNDUP
NATIONAL WEATHER SERVICE CORPUS CHRISTI TX
100 PM CDT SUN JUL 24 2016


TXZ229>244-241900-
...CORPUS CHRISTI AREA OBSERVATIONS...

CITY           SKY/WX    TMP DP  RH WIND       PRES   REMARKS
CORPUS CHRISTI PTSUNNY   93  75  55 SE15G23   29.93F HX 104
NAS CORPUS CHR MOSUNNY   92  80  68 SE16      29.95S HX 110
ROCKPORT       MOSUNNY   92  76  59 SE13      29.94F HX 104
KINGSVILLE NAS PTSUNNY   95  79  59 SE15      29.92F HX 112
ALICE          MOSUNNY   97  69  40 S9        29.91F HX 103
FALFURRIAS     MOSUNNY   98  69  38 SE10G18   29.90F HX 104
$$

...VICTORIA AREA OBSERVATIONS...

CITY           SKY/WX    TMP DP  RH WIND       PRES   REMARKS
VICTORIA       PTSUNNY   91  73  55 SW9       29.94F HX  99
BEEVILLE       FAIR      94  72  49 S12       29.93F HX 101
PLEASANTON     SUNNY     96  65  36 S3        29.93F HX  99
SAN ANTONIO    MOSUNNY   92  70  48 E10       29.97F HX  97
$$

...LAREDO AREA OBSERVATIONS...

CITY           SKY/WX    TMP DP  RH WIND       PRES   REMARKS
LAREDO         MOSUNNY   98  70  40 SE5       29.90F HX 105
COTULLA        SUNNY     97  67  37 SE9       29.91F HX 101
DEL RIO        SUNNY     96  68  39 SE12G22   29.92F HX 101
MCALLEN        SUNNY    100  72  40 SE10G24   29.90F HX 109
HEBBRONVILLE   MOSUNNY   96  66  37 S9G16     29.93F HX  99
$$

...OTHER TEXAS OBSERVATIONS...

CITY           SKY/WX    TMP DP  RH WIND       PRES   REMARKS
BROWNSVILLE    MOSUNNY   94  75  54 SE16G23   29.92F HX 105
HOUSTON        MOSUNNY   95  71  45 VRB6      29.95F HX 102
COL. STATION   MOSUNNY   93  72  50 SW8       29.96F HX 101
AUSTIN         MOSUNNY   94  70  45 S8        29.95F HX 100
WACO           SUNNY     95  69  42 MISG      29.96F HX 100
FORT WORTH     MOSUNNY   96  69  41 SW6       29.96F HX 102
WICHITA FALLS  SUNNY     97  68  38 S9        29.95F HX 102
LUBBOCK        MOSUNNY   95  57  27 SE7       30.07F HX  94
EL PASO        MOSUNNY   95  47  19 W3        30.01F HX  91
$$

...MARINE OBSERVATIONS...

STATION/POSITION TIME  SKY/WX   TEMP    WIND        PRES    VSBY  WAVE   SWELL
                                AIR SEA DIR/SP/G                  HT/PER HT/PER
                 (UTC)          (F)     (DEG/KT/KT) (MB)    (MI)  (FT/S) (FT/S)
PORT ARANSAS     1800            85 88  140/ 11/ 13 1014.5F
BUOY 90 E PORT A 1750            86 87  170/  8/ 10 1014.8F         2/ 4   2/ 4
BUOY 45 SE BAFFI 1750            85 85  160/ 10/ 12 1013.6F         2/ 5   2/ 5
BUOY 200 E PT IS 1750            86 87  190/  8/  8 1015.6S         1/ 4
BUOY 15 E GALVES 1750            87 90  240/  2/  4 1015.0F         2/ 4   2/ 4
$$



USA.gov is the U.S. government's official web portal to all federal, state and local government web resources and services.